カタログに戻る

QIANFAN-196

運用中通信PO
NORAD 69414·PAYLOAD·🇨🇳 China

打ち上げ Jun 5, 2026 から Wenchang Space Launch Site

Loading…

次のパス (今後24時間)

TLE

最新Source: Space-Track

元期: Sep 14, 2026, 14:11 UTC

1 69414U 26125P   26257.59160061  .00000015  00000-0  45822-5 0  9992
2 69414  88.9905 270.9007 0001853  92.3619 267.7744 13.51035246 14032

AllMySatでQIANFAN-196をリアルタイム追跡

Download on the App Store